Location: Schommer Observatory
(40.5200°N, 74.4500°W)
Time: 21:37:13
(UTC-04:00)

ISS - Pass Details

Date: 17 May 2018
Orbit: 402 x 407 km, 51.6° (Epoch: 23 May)

Event Time Altitude Azimuth Distance (km) Brightness Sun altitude
Exits shadow 01:16:55 13° 20° (NNE) 1,294 -0.5 -29.9°
Drops below altitude 10° 01:17:30 10° 29° (NNE) 1,458 -0.2 -29.9°
Sets 01:20:00 0° 48° (NE) 2,319 0.7 -29.9°
